• In Hungary
  • List of Countries
  • For 7 days
  • Water Temperature
  • Satellite Maps
  • Weather Map
  • News
  • Weather Widgets
  • user-avatar
    Login

    Hourly Weather Heist-op-den-Berg

    Today, 19 September, Wednesday

    Time Temperature Precipitation Wind Pressure Humidity
    00:00 +17°C° 0 mm 2 mps 761 mmHg 85%
    01:00 +16°C° 0 mm 2 mps 761 mmHg 87%
    02:00 +16°C° 0 mm 2 mps 761 mmHg 88%
    03:00 +16°C° 0 mm 2 mps 761 mmHg 89%
    04:00 +16°C° 0 mm 3 mps 761 mmHg 90%
    05:00 +16°C° 0 mm 3 mps 761 mmHg 91%
    06:00 +16°C° 0 mm 3 mps 761 mmHg 91%
    07:00 +18°C° 0 mm 4 mps 761 mmHg 84%
    08:00 +20°C° 0 mm 5 mps 761 mmHg 76%
    09:00 +22°C° 0 mm 5 mps 761 mmHg 69%
    10:00 +23°C° 0 mm 6 mps 761 mmHg 64%
    11:00 +24°C° 0 mm 6 mps 761 mmHg 59%
    12:00 +26°C° 0 mm 7 mps 761 mmHg 54%
    13:00 +26°C° 0 mm 6 mps 761 mmHg 54%
    14:00 +26°C° 0 mm 6 mps 761 mmHg 54%
    15:00 +26°C° 0 mm 6 mps 761 mmHg 53%
    16:00 +25°C° 0 mm 5 mps 761 mmHg 58%
    17:00 +22°C° 0 mm 4 mps 761 mmHg 63%
    18:00 +21°C° 0 mm 3 mps 761 mmHg 68%
    19:00 +20°C° 0 mm 3 mps 761 mmHg 71%
    20:00 +20°C° 0 mm 3 mps 762 mmHg 74%
    21:00 +19°C° 0 mm 3 mps 762 mmHg 76%
    22:00 +19°C° 0 mm 3 mps 762 mmHg 78%
    23:00 +18°C° 0 mm 4 mps 762 mmHg 79%

    Tomorrow, 20 September, Thursday

    Time Temperature Precipitation Wind Pressure Humidity
    00:00 +18°C° 0 mm 4 mps 762 mmHg 81%
    01:00 +17°C° 0 mm 4 mps 762 mmHg 83%
    02:00 +17°C° 0 mm 3 mps 762 mmHg 86%
    03:00 +16°C° 0 mm 3 mps 762 mmHg 88%
    04:00 +16°C° 0 mm 3 mps 762 mmHg 88%
    05:00 +15°C° 0 mm 4 mps 762 mmHg 89%
    06:00 +15°C° 0 mm 4 mps 762 mmHg 90%
    07:00 +17°C° 0 mm 5 mps 762 mmHg 83%
    08:00 +19°C° 0 mm 5 mps 762 mmHg 77%
    09:00 +21°C° 0 mm 6 mps 762 mmHg 70%
    10:00 +22°C° 0 mm 6 mps 761 mmHg 66%
    11:00 +23°C° 0 mm 6 mps 761 mmHg 61%
    12:00 +24°C° 0 mm 6 mps 761 mmHg 57%
    13:00 +26°C° 0 mm 6 mps 760 mmHg 56%
    14:00 +26°C° 0 mm 6 mps 760 mmHg 56%
    15:00 +26°C° 0 mm 6 mps 759 mmHg 56%
    16:00 +25°C° 0 mm 5 mps 759 mmHg 61%
    17:00 +22°C° 0 mm 4 mps 759 mmHg 66%
    18:00 +21°C° 0 mm 3 mps 758 mmHg 70%
    19:00 +21°C° 0 mm 4 mps 758 mmHg 68%
    20:00 +21°C° 0 mm 4 mps 757 mmHg 66%
    21:00 +21°C° 0 mm 5 mps 757 mmHg 64%
    22:00 +21°C° 0 mm 5 mps 756 mmHg 60%
    23:00 +21°C° 0 mm 6 mps 756 mmHg 57%

    Day after tomorrow, 21 September, Friday

    Time Temperature Precipitation Wind Pressure Humidity
    00:00 +22°C° 0 mm 6 mps 755 mmHg 54%
    01:00 +21°C° 0 mm 6 mps 755 mmHg 56%
    02:00 +21°C° 0 mm 7 mps 754 mmHg 58%
    03:00 +20°C° 0 mm 7 mps 754 mmHg 61%
    04:00 +20°C° 0.1 mm 7 mps 753 mmHg 63%
    05:00 +20°C° 0.1 mm 7 mps 753 mmHg 66%
    06:00 +20°C° 0.1 mm 8 mps 753 mmHg 68%
    07:00 +18°C° 3.2 mm 7 mps 753 mmHg 74%
    08:00 +16°C° 3.2 mm 7 mps 754 mmHg 79%
    09:00 +15°C° 3.2 mm 6 mps 755 mmHg 85%
    10:00 +15°C° 0.8 mm 6 mps 755 mmHg 81%
    11:00 +15°C° 0.8 mm 6 mps 756 mmHg 77%
    12:00 +15°C° 0.8 mm 5 mps 756 mmHg 74%
    13:00 +15°C° 0.2 mm 5 mps 757 mmHg 72%
    14:00 +15°C° 0.2 mm 5 mps 757 mmHg 71%
    15:00 +15°C° 0.2 mm 5 mps 757 mmHg 70%
    16:00 +14°C° 0.1 mm 4 mps 758 mmHg 70%
    17:00 +13°C° 0.1 mm 4 mps 758 mmHg 70%
    18:00 +12°C° 0.1 mm 3 mps 759 mmHg 71%
    19:00 +12°C° 0 mm 4 mps 760 mmHg 71%
    20:00 +12°C° 0 mm 4 mps 760 mmHg 71%
    21:00 +11°C° 0 mm 4 mps 761 mmHg 71%
    22:00 +11°C° 0 mm 4 mps 762 mmHg 72%
    23:00 +11°C° 0 mm 4 mps 762 mmHg 73%

    22 September, Saturday

    Time Temperature Precipitation Wind Pressure Humidity
    00:00 +10°C° 0 mm 4 mps 762 mmHg 73%
    01:00 +10°C° 0 mm 4 mps 763 mmHg 74%
    02:00 +10°C° 0 mm 4 mps 763 mmHg 74%
    03:00 +10°C° 0 mm 4 mps 764 mmHg 75%
    04:00 +8°C° 0 mm 4 mps 764 mmHg 76%
    05:00 +8°C° 0 mm 4 mps 765 mmHg 77%
    06:00 +8°C° 0 mm 4 mps 765 mmHg 78%
    07:00 +11°C° 0 mm 4 mps 765 mmHg 73%
    08:00 +13°C° 0 mm 5 mps 766 mmHg 67%
    09:00 +14°C° 0 mm 6 mps 766 mmHg 62%
    10:00 +15°C° 0.2 mm 6 mps 766 mmHg 58%
    11:00 +16°C° 0.2 mm 6 mps 766 mmHg 55%
    12:00 +16°C° 0.2 mm 6 mps 766 mmHg 52%
    13:00 +16°C° 0 mm 6 mps 766 mmHg 51%
    14:00 +16°C° 0 mm 5 mps 766 mmHg 50%
    15:00 +16°C° 0 mm 5 mps 766 mmHg 50%
    16:00 +15°C° 0 mm 4 mps 766 mmHg 54%
    17:00 +13°C° 0 mm 3 mps 767 mmHg 58%
    18:00 +13°C° 0 mm 2 mps 767 mmHg 63%
    19:00 +12°C° 0 mm 1 mps 767 mmHg 64%
    20:00 +12°C° 0 mm 1 mps 767 mmHg 65%
    21:00 +11°C° 0 mm 1 mps 766 mmHg 65%
    22:00 +10°C° 0 mm 2 mps 766 mmHg 66%
    23:00 +10°C° 0 mm 2 mps 765 mmHg 67%

    23 September, Sunday

    Time Temperature Precipitation Wind Pressure Humidity
    00:00 +10°C° 0 mm 3 mps 764 mmHg 68%
    01:00 +10°C° 0 mm 3 mps 763 mmHg 67%
    02:00 +11°C° 0 mm 3 mps 762 mmHg 66%
    03:00 +11°C° 0 mm 4 mps 761 mmHg 65%
    04:00 +10°C° 0.2 mm 5 mps 760 mmHg 69%
    05:00 +10°C° 0.2 mm 6 mps 759 mmHg 72%
    06:00 +10°C° 0.2 mm 6 mps 757 mmHg 75%
    07:00 +11°C° 0.3 mm 7 mps 755 mmHg 72%
    08:00 +11°C° 0.3 mm 8 mps 754 mmHg 69%
    09:00 +12°C° 0.3 mm 9 mps 752 mmHg 66%
    10:00 +13°C° 0.6 mm 9 mps 750 mmHg 67%
    11:00 +14°C° 0.6 mm 10 mps 748 mmHg 67%
    12:00 +16°C° 0.6 mm 11 mps 747 mmHg 68%
    13:00 +17°C° 0.3 mm 10 mps 746 mmHg 68%
    14:00 +17°C° 0.3 mm 10 mps 745 mmHg 69%
    15:00 +17°C° 0.3 mm 9 mps 743 mmHg 70%
    16:00 +16°C° 0.1 mm 10 mps 743 mmHg 66%
    17:00 +14°C° 0.1 mm 11 mps 742 mmHg 63%
    18:00 +13°C° 0.1 mm 12 mps 741 mmHg 59%
    19:00 +13°C° 0.2 mm 12 mps 740 mmHg 64%
    20:00 +13°C° 0.2 mm 13 mps 740 mmHg 68%
    21:00 +12°C° 0.2 mm 13 mps 739 mmHg 72%
    22:00 +13°C° 0.8 mm 12 mps 740 mmHg 77%
    23:00 +13°C° 0.8 mm 11 mps 740 mmHg 82%

    24 September, Monday

    Time Temperature Precipitation Wind Pressure Humidity
    00:00 +13°C° 0.8 mm 10 mps 740 mmHg 86%
    01:00 +13°C° 0.6 mm 10 mps 742 mmHg 85%
    02:00 +13°C° 0.6 mm 10 mps 743 mmHg 84%
    03:00 +12°C° 0.6 mm 9 mps 745 mmHg 83%
    04:00 +12°C° 0.4 mm 10 mps 747 mmHg 82%
    05:00 +12°C° 0.4 mm 10 mps 750 mmHg 81%
    06:00 +12°C° 0.4 mm 11 mps 753 mmHg 80%
    07:00 +12°C° 0.3 mm 10 mps 755 mmHg 77%
    08:00 +12°C° 0.3 mm 10 mps 757 mmHg 73%
    09:00 +12°C° 0.3 mm 9 mps 760 mmHg 70%
    10:00 +12°C° 0.1 mm 9 mps 761 mmHg 65%
    11:00 +13°C° 0.1 mm 10 mps 762 mmHg 59%
    12:00 +14°C° 0.1 mm 10 mps 764 mmHg 54%
    13:00 +13°C° 0.1 mm 9 mps 764 mmHg 55%
    14:00 +12°C° 0.1 mm 8 mps 765 mmHg 57%
    15:00 +12°C° 0.1 mm 8 mps 766 mmHg 59%
    16:00 +11°C° 0.1 mm 7 mps 767 mmHg 61%
    17:00 +11°C° 0.1 mm 6 mps 768 mmHg 64%
    18:00 +10°C° 0.1 mm 5 mps 768 mmHg 66%
    19:00 +11°C° 0.1 mm 4 mps 769 mmHg 67%
    20:00 +11°C° 0.1 mm 4 mps 769 mmHg 67%
    21:00 +11°C° 0.1 mm 3 mps 770 mmHg 68%
    22:00 +10°C° 0.1 mm 3 mps 770 mmHg 69%
    23:00 +10°C° 0.1 mm 3 mps 770 mmHg 70%
    Show more